BXS2543 LICR-LIRN

Flight info

Callsign BXS2543
Flight time 1h 5m
Altitude 18000
Route PAZZE Z854 BAGIX/N0411F340 DCT DELER/N0359F180 M742 SOR
Aircraft C25B/M-SDE2E3FGHRWXY/LB1

Departure

Time 2026-04-22 17:48
Airport Reggio Calabria Airport (LICR)

Arrival

Time 2026-04-22 18:53
Airport Naples International Airport (LIRN)
Time Latitude Longitude Altitude Speed Heading
2026-04-22 17:42 38.07366 15.65168 56 ft 0 kts 220°
2026-04-22 17:45 38.07369 15.65147 55 ft 4 kts 342°
2026-04-22 17:45 38.07393 15.65145 58 ft 2 kts
2026-04-22 17:45 38.07386 15.65172 55 ft 1 kts 140°
2026-04-22 17:46 38.07325 15.65188 55 ft 11 kts 233°
2026-04-22 17:46 38.07295 15.65099 56 ft 13 kts 262°
2026-04-22 17:46 38.07376 15.64989 59 ft 19 kts 333°
2026-04-22 17:47 38.07510 15.64902 58 ft 24 kts 333°
2026-04-22 17:47 38.07667 15.64800 73 ft 24 kts 334°
2026-04-22 17:47 38.07812 15.64707 82 ft 25 kts 333°
2026-04-22 17:47 38.07938 15.64596 88 ft 20 kts 325°
2026-04-22 17:48 38.07967 15.64605 90 ft 6 kts 129°
2026-04-22 17:48 38.07468 15.64936 86 ft 140 kts 152°
2026-04-22 17:48 38.06446 15.65657 720 ft 196 kts 150°
2026-04-22 17:48 38.05071 15.66713 985 ft 263 kts 148°
2026-04-22 17:49 38.03480 15.68050 1967 ft 268 kts 144°
2026-04-22 17:49 38.02110 15.69396 4026 ft 236 kts 140°
2026-04-22 17:49 38.00817 15.70808 5185 ft 262 kts 137°
2026-04-22 17:49 37.99388 15.72546 5593 ft 302 kts 134°
2026-04-22 17:50 37.97951 15.74480 6861 ft 292 kts 132°
2026-04-22 17:50 37.96675 15.76365 8509 ft 277 kts 129°
2026-04-22 17:50 37.95482 15.78371 9457 ft 297 kts 126°
2026-04-22 17:50 37.94288 15.80663 9905 ft 325 kts 122°
2026-04-22 17:51 37.93396 15.83344 10205 ft 346 kts 103°
2026-04-22 17:51 37.93103 15.86455 10524 ft 358 kts 88°
2026-04-22 17:51 37.93410 15.89568 10839 ft 364 kts 73°
2026-04-22 17:51 37.94308 15.92571 11158 ft 366 kts 59°
2026-04-22 17:52 37.95740 15.95217 11475 ft 364 kts 45°
2026-04-22 17:52 37.97616 15.97350 11803 ft 361 kts 30°
2026-04-22 17:52 37.99815 15.98832 12124 ft 356 kts 17°
2026-04-22 17:52 38.02205 15.99585 12509 ft 359 kts
2026-04-22 17:53 38.04718 15.99519 13435 ft 364 kts 348°
2026-04-22 17:53 38.07177 15.98681 14354 ft 369 kts 335°
2026-04-22 17:53 38.09425 15.97112 15302 ft 370 kts 322°
2026-04-22 17:53 38.11325 15.94913 16284 ft 371 kts 310°
2026-04-22 17:54 38.12772 15.92199 17304 ft 372 kts 297°
2026-04-22 17:54 38.13713 15.89123 17989 ft 379 kts 286°
2026-04-22 17:54 38.14136 15.85800 18002 ft 383 kts 275°
2026-04-22 17:54 38.13954 15.82418 17993 ft 385 kts 263°
2026-04-22 17:55 38.13586 15.80215 17990 ft 386 kts 259°
2026-04-22 17:55 38.12734 15.75798 17990 ft 384 kts 261°
2026-04-22 17:55 38.12236 15.72484 17987 ft 381 kts 264°
2026-04-22 17:55 38.11936 15.69144 17989 ft 380 kts 268°
2026-04-22 17:56 38.11853 15.65796 17989 ft 378 kts 272°
2026-04-22 17:56 38.11992 15.62510 17988 ft 377 kts 277°
2026-04-22 17:56 38.12354 15.59216 17987 ft 375 kts 282°
2026-04-22 17:56 38.12944 15.55995 17984 ft 374 kts 286°
2026-04-22 17:57 38.13810 15.52887 17987 ft 373 kts 294°
2026-04-22 17:57 38.15011 15.49960 17986 ft 373 kts 300°
2026-04-22 17:57 38.16527 15.47280 17989 ft 374 kts 308°
2026-04-22 17:57 38.18330 15.44881 17993 ft 376 kts 316°
2026-04-22 17:58 38.20390 15.42818 17992 ft 379 kts 323°
2026-04-22 17:58 38.22692 15.41141 17993 ft 382 kts 330°
2026-04-22 17:58 38.25136 15.39905 17992 ft 385 kts 338°
2026-04-22 17:58 38.27788 15.39097 17992 ft 389 kts 346°
2026-04-22 17:59 38.30501 15.38807 17989 ft 393 kts 354°
2026-04-22 17:59 38.33213 15.39033 17990 ft 399 kts
2026-04-22 17:59 38.35940 15.39780 17994 ft 404 kts 11°
2026-04-22 17:59 38.38587 15.41070 17991 ft 409 kts 19°
2026-04-22 18:00 38.40329 15.42115 17990 ft 409 kts 19°
2026-04-22 18:00 38.43764 15.44111 17995 ft 409 kts 19°
2026-04-22 18:00 38.46356 15.45627 17998 ft 410 kts 19°
2026-04-22 18:00 38.48944 15.47145 17997 ft 410 kts 19°
2026-04-22 18:01 38.51536 15.48676 17998 ft 410 kts 19°
2026-04-22 18:01 38.54136 15.50181 18000 ft 408 kts 17°
2026-04-22 18:01 38.55902 15.50960 17990 ft 403 kts
2026-04-22 18:01 38.58626 15.51692 17992 ft 397 kts
2026-04-22 18:02 38.61365 15.51887 17988 ft 392 kts 354°
2026-04-22 18:02 38.64076 15.51702 17987 ft 390 kts 351°
2026-04-22 18:02 38.66788 15.51502 17990 ft 390 kts 351°
2026-04-22 18:02 38.69502 15.51308 17996 ft 390 kts 351°
2026-04-22 18:03 38.72220 15.51112 17998 ft 391 kts 351°
2026-04-22 18:03 38.74927 15.50903 18000 ft 391 kts 351°
2026-04-22 18:03 38.77617 15.50706 17997 ft 391 kts 351°
2026-04-22 18:03 38.80335 15.50503 18001 ft 391 kts 351°
2026-04-22 18:04 38.83058 15.50303 18004 ft 391 kts 351°
2026-04-22 18:04 38.85776 15.50099 18006 ft 391 kts 351°
2026-04-22 18:04 38.88496 15.49896 18010 ft 391 kts 351°
2026-04-22 18:04 38.91215 15.49694 18007 ft 391 kts 351°
2026-04-22 18:05 38.93934 15.49455 18009 ft 388 kts 348°
2026-04-22 18:05 38.96560 15.48756 18002 ft 383 kts 340°
2026-04-22 18:05 38.99058 15.47641 18002 ft 378 kts 332°
2026-04-22 18:05 39.01386 15.46109 17998 ft 374 kts 325°
2026-04-22 18:06 39.03506 15.44184 18001 ft 372 kts 318°
2026-04-22 18:06 39.05463 15.42023 17998 ft 371 kts 316°
2026-04-22 18:06 39.07407 15.39899 17999 ft 371 kts 317°
2026-04-22 18:06 39.09377 15.37740 18004 ft 371 kts 316°
2026-04-22 18:07 39.11346 15.35573 18000 ft 372 kts 316°
2026-04-22 18:07 39.13306 15.33399 18002 ft 372 kts 316°
2026-04-22 18:07 39.15278 15.31231 18002 ft 372 kts 316°
2026-04-22 18:07 39.17240 15.29060 18005 ft 372 kts 316°
2026-04-22 18:08 39.19211 15.26887 18003 ft 372 kts 316°
2026-04-22 18:08 39.21146 15.24741 18004 ft 372 kts 316°
2026-04-22 18:08 39.23110 15.22572 18005 ft 372 kts 316°
2026-04-22 18:08 39.25070 15.20396 18002 ft 372 kts 316°
2026-04-22 18:09 39.27035 15.18222 18003 ft 372 kts 316°
2026-04-22 18:09 39.28996 15.16042 18003 ft 372 kts 316°
2026-04-22 18:09 39.30957 15.13869 18000 ft 372 kts 316°
2026-04-22 18:09 39.32920 15.11683 18006 ft 372 kts 316°
2026-04-22 18:10 39.34879 15.09508 18001 ft 372 kts 316°
2026-04-22 18:10 39.36840 15.07324 18005 ft 371 kts 316°
2026-04-22 18:10 39.38801 15.05142 18003 ft 371 kts 316°
2026-04-22 18:10 39.40732 15.02987 18000 ft 371 kts 316°
2026-04-22 18:11 39.42688 15.00808 17999 ft 371 kts 316°
2026-04-22 18:11 39.44643 14.98623 18006 ft 371 kts 316°
2026-04-22 18:11 39.46597 14.96442 18003 ft 371 kts 316°
2026-04-22 18:11 39.48553 14.94254 18005 ft 371 kts 316°
2026-04-22 18:12 39.50507 14.92069 18006 ft 371 kts 316°
2026-04-22 18:12 39.52462 14.89879 18008 ft 371 kts 316°
2026-04-22 18:12 39.54395 14.87712 18005 ft 371 kts 316°
2026-04-22 18:12 39.56344 14.85527 18006 ft 371 kts 316°
2026-04-22 18:13 39.58293 14.83339 18005 ft 371 kts 316°
2026-04-22 18:13 39.60244 14.81148 18007 ft 371 kts 316°
2026-04-22 18:13 39.62199 14.78951 18008 ft 371 kts 316°
2026-04-22 18:13 39.64148 14.76759 18007 ft 371 kts 316°
2026-04-22 18:14 39.66099 14.74560 18004 ft 371 kts 316°
2026-04-22 18:14 39.68054 14.72362 18002 ft 371 kts 316°
2026-04-22 18:14 39.70000 14.70163 18007 ft 371 kts 316°
2026-04-22 18:14 39.71950 14.67966 18006 ft 371 kts 316°
2026-04-22 18:15 39.73898 14.65762 18016 ft 371 kts 316°
2026-04-22 18:15 39.75845 14.63566 18015 ft 371 kts 316°
2026-04-22 18:15 39.77793 14.61358 18014 ft 371 kts 316°
2026-04-22 18:15 39.79743 14.59157 18012 ft 371 kts 316°
2026-04-22 18:16 39.81662 14.56976 18019 ft 371 kts 316°
2026-04-22 18:16 39.83609 14.54775 18018 ft 371 kts 316°
2026-04-22 18:16 39.85554 14.52562 18023 ft 371 kts 316°
2026-04-22 18:16 39.87497 14.50361 18018 ft 371 kts 316°
2026-04-22 18:17 39.89445 14.48143 18015 ft 371 kts 316°
2026-04-22 18:17 39.91390 14.45935 18016 ft 371 kts 316°
2026-04-22 18:17 39.93339 14.43712 18022 ft 371 kts 316°
2026-04-22 18:17 39.95287 14.41500 18031 ft 371 kts 316°
2026-04-22 18:18 39.97224 14.39285 18031 ft 371 kts 316°
2026-04-22 18:18 39.99165 14.37076 18027 ft 371 kts 316°
2026-04-22 18:18 40.01101 14.34859 18029 ft 370 kts 316°
2026-04-22 18:18 40.03020 14.32674 18032 ft 370 kts 316°
2026-04-22 18:19 40.04958 14.30450 18030 ft 370 kts 316°
2026-04-22 18:19 40.06903 14.28231 18030 ft 370 kts 316°
2026-04-22 18:19 40.08836 14.26011 18034 ft 370 kts 315°
2026-04-22 18:19 40.10787 14.23806 18032 ft 370 kts 317°
2026-04-22 18:20 40.12922 14.21923 18031 ft 368 kts 325°
2026-04-22 18:20 40.15189 14.20420 18024 ft 367 kts 332°
2026-04-22 18:20 40.17617 14.19313 18027 ft 373 kts 339°
2026-04-22 18:20 40.20185 14.18643 18029 ft 380 kts 346°
2026-04-22 18:21 40.22839 14.18424 18029 ft 378 kts 354°
2026-04-22 18:21 40.25344 14.18662 18025 ft 355 kts
2026-04-22 18:21 40.27749 14.19288 17295 ft 354 kts
2026-04-22 18:21 40.30112 14.20335 16469 ft 359 kts 13°
2026-04-22 18:22 40.32474 14.21431 16046 ft 361 kts 12°
2026-04-22 18:22 40.34850 14.22520 15778 ft 363 kts 13°
2026-04-22 18:22 40.37238 14.23643 15530 ft 366 kts 13°
2026-04-22 18:22 40.39647 14.24775 15291 ft 369 kts 13°
2026-04-22 18:23 40.42068 14.25910 15121 ft 368 kts 13°
2026-04-22 18:23 40.44471 14.27032 15045 ft 365 kts 13°
2026-04-22 18:23 40.46862 14.28159 15046 ft 367 kts 13°
2026-04-22 18:24 40.51597 14.30377 15053 ft 360 kts 13°
2026-04-22 18:24 40.53945 14.31482 15055 ft 357 kts 13°
2026-04-22 18:24 40.58449 14.34292 14893 ft 364 kts 26°
2026-04-22 18:25 40.60389 14.36376 14479 ft 356 kts 38°
2026-04-22 18:25 40.62108 14.38585 14046 ft 332 kts 32°
2026-04-22 18:25 40.64015 14.40081 13616 ft 306 kts 15°
2026-04-22 18:26 40.67811 14.40708 12904 ft 260 kts 347°
2026-04-22 18:26 40.69535 14.40181 12591 ft 249 kts 336°
2026-04-22 18:26 40.71081 14.39226 12291 ft 242 kts 327°
2026-04-22 18:26 40.72416 14.37911 11983 ft 237 kts 317°
2026-04-22 18:27 40.73504 14.36338 11691 ft 234 kts 306°
2026-04-22 18:27 40.74342 14.34512 11401 ft 233 kts 297°
2026-04-22 18:27 40.74887 14.32499 11104 ft 234 kts 287°
2026-04-22 18:27 40.75120 14.30377 11000 ft 230 kts 277°
2026-04-22 18:28 40.75053 14.28305 10993 ft 224 kts 266°
2026-04-22 18:28 40.74693 14.26278 10529 ft 237 kts 257°
2026-04-22 18:28 40.73952 14.24218 9754 ft 256 kts 244°
2026-04-22 18:28 40.72909 14.22251 8921 ft 269 kts 239°
2026-04-22 18:29 40.71823 14.20211 8315 ft 272 kts 240°
2026-04-22 18:29 40.70746 14.18184 7762 ft 274 kts 239°
2026-04-22 18:29 40.69652 14.16124 7224 ft 275 kts 239°
2026-04-22 18:29 40.68552 14.14059 6691 ft 276 kts 238°
2026-04-22 18:30 40.67462 14.12020 6448 ft 267 kts 238°
2026-04-22 18:30 40.65377 14.08103 6025 ft 257 kts 239°
2026-04-22 18:30 40.64369 14.06215 5860 ft 253 kts 238°
2026-04-22 18:31 40.63361 14.04326 5701 ft 250 kts 238°
2026-04-22 18:31 40.62354 14.02466 5539 ft 248 kts 238°
2026-04-22 18:31 40.61351 14.00618 5382 ft 247 kts 238°
2026-04-22 18:31 40.60361 13.98775 5228 ft 246 kts 238°
2026-04-22 18:32 40.59387 13.96931 5073 ft 245 kts 238°
2026-04-22 18:32 40.58417 13.95093 4922 ft 244 kts 238°
2026-04-22 18:32 40.57441 13.93261 4768 ft 244 kts 238°
2026-04-22 18:32 40.56482 13.91454 4593 ft 245 kts 238°
2026-04-22 18:33 40.55481 13.89572 4098 ft 259 kts 238°
2026-04-22 18:33 40.54457 13.87638 4005 ft 253 kts 237°
2026-04-22 18:33 40.53462 13.85790 4001 ft 241 kts 237°
2026-04-22 18:33 40.52520 13.84014 3993 ft 232 kts 237°
2026-04-22 18:34 40.51608 13.82300 3986 ft 225 kts 238°
2026-04-22 18:34 40.50930 13.80530 3987 ft 210 kts 259°
2026-04-22 18:34 40.50858 13.78695 3988 ft 195 kts 283°
2026-04-22 18:34 40.51179 13.77005 3988 ft 185 kts 296°
2026-04-22 18:35 40.51852 13.75688 3983 ft 162 kts 323°
2026-04-22 18:35 40.52717 13.74894 4013 ft 142 kts 332°
2026-04-22 18:35 40.53583 13.74426 4000 ft 131 kts 347°
2026-04-22 18:35 40.54451 13.74211 3997 ft 126 kts 357°
2026-04-22 18:36 40.55322 13.74249 3988 ft 125 kts
2026-04-22 18:36 40.56162 13.74520 3995 ft 124 kts 19°
2026-04-22 18:36 40.56950 13.74991 3994 ft 124 kts 27°
2026-04-22 18:36 40.57709 13.75538 3994 ft 125 kts 24°
2026-04-22 18:37 40.58496 13.76055 3995 ft 128 kts 26°
2026-04-22 18:37 40.59293 13.76597 4000 ft 129 kts 24°
2026-04-22 18:37 40.59827 13.76952 4004 ft 130 kts 26°
2026-04-22 18:37 40.60911 13.77688 4011 ft 131 kts 25°
2026-04-22 18:38 40.61658 13.78361 3997 ft 132 kts 44°
2026-04-22 18:38 40.62186 13.79365 3996 ft 133 kts 51°
2026-04-22 18:38 40.62744 13.80340 4003 ft 134 kts 51°
2026-04-22 18:39 40.63822 13.82349 4014 ft 134 kts 50°
2026-04-22 18:39 40.64356 13.83347 4013 ft 136 kts 51°
2026-04-22 18:39 40.64905 13.84365 4013 ft 137 kts 51°
2026-04-22 18:39 40.65451 13.85383 4015 ft 136 kts 50°
2026-04-22 18:40 40.65996 13.86393 4014 ft 135 kts 51°
2026-04-22 18:40 40.66542 13.87408 4013 ft 136 kts 51°
2026-04-22 18:40 40.67087 13.88420 4014 ft 135 kts 51°
2026-04-22 18:40 40.67629 13.89438 4012 ft 136 kts 51°
2026-04-22 18:41 40.68172 13.90447 4013 ft 135 kts 51°
2026-04-22 18:41 40.68708 13.91445 4012 ft 131 kts 51°
2026-04-22 18:41 40.69227 13.92412 4001 ft 128 kts 50°
2026-04-22 18:41 40.69740 13.93366 3993 ft 127 kts 50°
2026-04-22 18:42 40.70240 13.94304 3999 ft 127 kts 51°
2026-04-22 18:42 40.70745 13.95291 4152 ft 132 kts 53°
2026-04-22 18:42 40.71290 13.96317 4112 ft 138 kts 50°
2026-04-22 18:42 40.71861 13.97290 4007 ft 128 kts 50°
2026-04-22 18:43 40.72346 13.98233 3994 ft 121 kts 51°
2026-04-22 18:43 40.72827 13.99108 3999 ft 116 kts 51°
2026-04-22 18:43 40.73282 13.99985 3991 ft 115 kts 51°
2026-04-22 18:43 40.73750 14.00838 3995 ft 113 kts 51°
2026-04-22 18:44 40.74210 14.01716 3922 ft 123 kts 52°
2026-04-22 18:44 40.74742 14.02701 3327 ft 137 kts 53°
2026-04-22 18:44 40.75269 14.03690 3006 ft 122 kts 52°
2026-04-22 18:44 40.75717 14.04526 2989 ft 105 kts 52°
2026-04-22 18:45 40.76126 14.05283 2991 ft 98 kts 52°
2026-04-22 18:45 40.76507 14.06010 2994 ft 95 kts 52°
2026-04-22 18:45 40.76889 14.06718 2991 ft 95 kts 52°
2026-04-22 18:45 40.77259 14.07435 3003 ft 94 kts 52°
2026-04-22 18:46 40.77629 14.08156 2991 ft 95 kts 54°
2026-04-22 18:46 40.78011 14.08853 3026 ft 96 kts 52°
2026-04-22 18:46 40.78401 14.09634 3002 ft 100 kts 56°
2026-04-22 18:46 40.78670 14.10116 2994 ft 97 kts 49°
2026-04-22 18:47 40.79164 14.11064 3000 ft 92 kts 56°
2026-04-22 18:47 40.79548 14.11736 2991 ft 92 kts 49°
2026-04-22 18:47 40.79786 14.12201 2991 ft 92 kts 55°
2026-04-22 18:47 40.80149 14.12893 2997 ft 91 kts 49°
2026-04-22 18:48 40.80507 14.13578 2993 ft 90 kts 56°
2026-04-22 18:48 40.80874 14.14243 2998 ft 90 kts 49°
2026-04-22 18:48 40.81217 14.14924 2988 ft 88 kts 57°
2026-04-22 18:48 40.81583 14.15566 2966 ft 89 kts 49°
2026-04-22 18:49 40.81947 14.16310 2889 ft 105 kts 55°
2026-04-22 18:49 40.82397 14.17133 2669 ft 108 kts 52°
2026-04-22 18:49 40.82820 14.17895 2486 ft 96 kts 53°
2026-04-22 18:49 40.83177 14.18615 2347 ft 92 kts 57°
2026-04-22 18:50 40.83549 14.19281 2189 ft 88 kts 53°
2026-04-22 18:50 40.83874 14.19933 2050 ft 83 kts 57°
2026-04-22 18:50 40.84219 14.20536 1916 ft 83 kts 52°
2026-04-22 18:50 40.84533 14.21170 1799 ft 84 kts 60°
2026-04-22 18:51 40.84885 14.21788 1662 ft 82 kts 58°
2026-04-22 18:51 40.85188 14.22424 1535 ft 83 kts 58°
2026-04-22 18:51 40.85563 14.23045 1392 ft 87 kts 56°
2026-04-22 18:51 40.85871 14.23717 1266 ft 87 kts 57°
2026-04-22 18:52 40.86254 14.24344 1113 ft 88 kts 54°
2026-04-22 18:52 40.86573 14.25028 956 ft 87 kts 54°
2026-04-22 18:52 40.86947 14.25672 844 ft 91 kts 57°
2026-04-22 18:52 40.87291 14.26349 709 ft 86 kts 50°
2026-04-22 18:53 40.87619 14.26984 505 ft 83 kts 55°
2026-04-22 18:53 40.87915 14.27643 332 ft 82 kts 62°
2026-04-22 18:53 40.88206 14.28257 293 ft 73 kts 58°
2026-04-22 18:53 40.88388 14.28639 277 ft 10 kts 55°
2026-04-22 18:54 40.88415 14.28735 274 ft 12 kts 99°
2026-04-22 18:54 40.88338 14.28829 271 ft 18 kts 149°
2026-04-22 18:54 40.88234 14.28905 271 ft 10 kts 179°
2026-04-22 18:54 40.88208 14.28867 272 ft 5 kts 291°
2026-04-22 18:55 40.88230 14.28833 272 ft 0 kts 330°